Starlink 33988

operational
NORAD ID: 63938 Int'l Des: 2025-098 Owner: SPXS Country: US Constellation: starlink
LEOCIRCULAR

About Starlink 33988

Description loading...

Live Position

Loading 3D Globe...

Upcoming Passes

Altitude History

Altitude vs Time

uPlot chart will show altitude changes over time

Two-Line Element Set

1 63938U 25098N 26063.03496413 .00004563 00000-0 38987-3 0 9996
2 63938 69.9996 288.7873 0002718 300.8932 59.1959 14.98337970 45700
Epoch: Mar 4, 2026 • Age: 16 hours

Current Status

Altitude 585.1 km
Velocity 7.57 km/s
Sub-Earth Point 69.60°N, 7.13°W
Launch Date May 13, 2025
Age 0.8 years
Type internet

Technical Details

Classification Payload
Mass 575.00 kg
Dry Mass 530.00 kg
Total Mass 575.00 kg
Length 0.30 m
Diameter 4.10 m
Span 29.00 m
Shape Box + pan
Manufacturer SPXS
Bus Type Starlink V2MO
Phase Status In Orbit
Owner/State SPXS/US

Large Constellations

Loading constellations...